Location: Grange Verzio
(44.5000°N, 6.9833°E)
Time: 17:23:45
(UTC+00:00)

IKONOS-2 - Pass Details

Date: 01 February 2023
Orbit: 594 x 605 km, 98.2° (Epoch: 29 March)

Event Time Altitude Azimuth Distance (km) Brightness Sun altitude
Rises 17:10:53 0° 15° (NNE) 2,880 7.7 -5.9°
Reaches altitude 10° 17:13:05 10° 18° (NNE) 1,971 6.8 -6.2°
Maximum altitude 17:17:22 70° 102° (ESE) 649 4.5 -7.0°
Drops below altitude 10° 17:21:35 10° 187° (S) 1,951 7.4 -7.7°
Sets 17:23:45 0° 189° (S) 2,848 8.3 -8.1°
